Regional Weather Roundup
Issued by NWS

Home | Current Version | Previous Version | Text Only | Print | Product List | Glossary Off
Versions: 1 2 3 4 5 6 7 8 9 10 11 12 13 14 15 16 17 18 19 20 21 22 23 24 25 26 27 28 29 30 31 32 33 34 35 36 37 38 39 40 41 42 43 44 45 46 47 48 49 50

000
ASUS43 KFSD 040710
RWRSD

WEATHER ROUNDUP FOR SOUTH DAKOTA
NATIONAL WEATHER SERVICE SIOUX FALLS SD
200 AM CDT MON MAY 04 2015

NOTE: "FAIR" INDICATES FEW OR NO CLOUDS BELOW 12,000 FEET WITH NO
SIGNIFICANT WEATHER AND/OR OBSTRUCTIONS TO VISIBILITY.


SDZ001>005-009-010-012>017-040800-
NORTHWEST AND NORTH CENTRAL SOUTH DAKOTA

CITY           SKY/WX    TMP DP  RH WIND       PRES   REMARKS
BUFFALO          N/A     45  34  65 NE9       30.04S
FAITH            N/A     42  26  53 E8        30.10R
MOBRIDGE       CLEAR     40  25  55 CALM      30.09R
$$

SDZ012>016-024>037-041>051-057-063-072>074-040800-
SOUTHWEST AND SOUTH CENTRAL SOUTH DAKOTA

CITY           SKY/WX    TMP DP  RH WIND       PRES   REMARKS
RAPID CTY ARPT CLOUDY    47  34  60 CALM      30.10S
PIERRE         PTCLDY    46  24  42 NE7       30.09R
CUSTER         RAIN      43  35  73 E7        30.15R
ELLSWORTH AFB  CLOUDY    51  33  51 CALM      30.10S
PHILIP         MOCLDY    46  25  43 NE3       30.09R
PINE RIDGE     CLOUDY    49  32  52 E10       30.08S
SPEARFISH      FAIR      45  37  76 E7        30.11F
WINNER         FAIR      51  27  39 E3        30.09R
$$

SDZ004>011-016>023-039-040-040800-
NORTHEAST SOUTH DAKOTA

CITY           SKY/WX    TMP DP  RH WIND       PRES   REMARKS
ABERDEEN       CLEAR     41  25  53 NE6       30.11R
WATERTOWN      CLEAR     43  28  55 N5        30.08R
BROOKINGS      CLEAR     46  30  53 CALM      30.08R
SISSETON         N/A     42  25  50 NW8       30.07R
$$

SDZ017-020-022-023-036>040-048>070-040800-
SOUTHEAST SOUTH DAKOTA

CITY           SKY/WX    TMP DP  RH WIND       PRES   REMARKS
SIOUX FALLS    MOCLDY    51  34  52 NE3       30.04R
HURON          CLEAR     40  27  59 CALM      30.08R
CHAMBERLAIN    MOCLDY    48  27  43 NE3       30.09S
MITCHELL       PTCLDY    45  35  68 NW6       30.08R
YANKTON        PTCLDY    54  34  47 N10       30.03R
$$

ABBREVIATIONS USED IN REMARKS
   TC - TEMPERATURE IN CELSIUS
  WCI - WIND CHILL INDEX
   HX - HEAT INDEX
  VSB - VISIBILITY




USA.gov is the U.S. government's official web portal to all federal, state and local government web resources and services.